Location: College Park
(38.9810°N, 76.9370°W)
Time: 02:36:53
(UTC-05:00)

Tiangong 2 - Pass Details

Date: 03 January 2018
Orbit: 384 x 390 km, 42.8° (Epoch: 15 January)

Event Time Altitude Azimuth Distance (km) Brightness Sun altitude
Rises 18:08:59 0° 286° (WNW) 2,268 5.9 -13.4°
Reaches altitude 10° 18:11:10 10° 277° (W) 1,410 5.0 -13.8°
Maximum altitude 18:14:06 35° 210° (SSW) 638 2.6 -14.4°
Drops below altitude 10° 18:17:02 10° 142° (SE) 1,400 3.7 -14.9°
Enters shadow 18:17:15 - 140° (SE) 1,487 3.8 -15.0°
